Content
SEND FEEDBACK

Daily
Averages
Monthly
Summary
Canada

REGINA AIRPORT, SASKATCHEWAN


Home > North America > Canada > Saskatchewan
Elevation: 1895 feet     Latitude: 50 26N     Longitude: 104 40W

WEATHER
 
SELECT A DAY
Number of Records: 136,218;   Date Range: 2/29/96 - 12/19/14
 
SHARE

PRINT THIS DATA

[ ← Previous Day ]
WEATHER ALMANAC - JANUARY 31, 2013
[ Next Day → ]
[ °C ]   °F
Weather ElementAverageHighLow
Temperature-22.3 °F-15 °F (11:00 pm)-31.4 °F (9:00 am)
Dewpoint-29.4 °F-21.3 °F (11:00 pm)-39.6 °F (9:00 am)
Humidity67.8 %73 % (11:00 pm)49 % (6:00 am)
Barometer30.43 in30.53 in (11:00 am)30.20 in (11:00 pm)
Wind Speed10 mph16.1 mph (1:00 am)
Weather ElementAverage
Wind DirectionWSW (243.3 °)

Weather ElementTotal
Precipitation---
Heating Degree Days88.2 (Base 65)
Averaged from 27 records on January 31, 2013
WEATHER CONDITIONS BREAKOUT
WIND DIRECTION BREAKOUT
WEATHER BY HOUR - JANUARY 31, 2013
[ °C ]   °F
Local TimeTemperatureDewpointHumidityBarometerVisibilityWind DirectionWind SpeedGust SpeedPrecipitationEventsConditions
12:00 AM-20.6 °F-27.2 °F71 %30.39 inNW (320°)13.8 mph
1:00 AM-22.2 °F-29.0 °F70 %30.41 inNW (320°)16.1 mph
2:00 AM-23.4 °F-30.5 °F70 %30.44 inNW (320°)11.5 mph
3:00 AM-23.4 °F-30.5 °F70 %30.46 inNW (310°)13.8 mph
4:00 AM-25.8 °F-33.2 °F68 %30.48 inWNW (300°)12.7 mph
5:00 AM-26.9 °F-34.2 °F68 %30.49 inNW (310°)15.0 mph
6:00 AM-28.1 °F-35.7 °F67 %30.51 inWNW (300°)13.8 mph
6:00 AM-28.0 °F-36.0 °F49 %30.51 inWNW (300°)13.8 mph
7:00 AM-30.1 °F-37.8 °F66 %30.52 inWNW (300°)9.2 mph
8:00 AM-30.3 °F-38.0 °F66 %30.52 inWNW (300°)10.4 mph
9:00 AM-31.4 °F-39.6 °F64 %30.52 inWNW (290°)8.1 mph
10:00 AM-28.3 °F-35.9 °F67 %30.52 inWNW (290°)9.2 mph
11:00 AM-25.2 °F-32.6 °F68 %30.53 inWNW (290°)8.1 mph
12:00 PM-22.5 °F-29.7 °F69 %30.52 inWest (280°)5.8 mph
12:00 PM-23.0 °F-30.0 °F55 %30.52 inWest (280°)5.8 mph
1:00 PM-20.0 °F-27.0 °F70 %30.48 inWest (270°)8.1 mph
2:00 PM-18.6 °F-25.6 °F70 %30.47 inWest (260°)6.9 mph
3:00 PM-16.8 °F-23.6 °F71 %30.44 inWest (260°)3.5 mph
4:00 PM-15.9 °F-22.5 °F72 %30.42 inSouth (190°)3.5 mph
5:00 PM-17.5 °F-24.3 °F71 %30.40 inSSE (150°)5.8 mph
6:00 PM-18.2 °F-24.9 °F72 %30.38 inSE (140°)6.9 mph
6:00 PM-18.0 °F-25.0 °F56 %30.38 inSE (140°)6.9 mph
7:00 PM-18.4 °F-25.1 °F72 %30.35 inSE (140°)8.1 mph
8:00 PM-18.8 °F-25.4 °F72 %30.31 inSE (130°)12.7 mph
9:00 PM-18.9 °F-25.6 °F72 %30.29 inSE (130°)12.7 mph
10:00 PM-16.8 °F-23.3 °F72 %30.25 inSE (130°)13.8 mph
11:00 PM-15.0 °F-21.3 °F73 %30.20 inESE (120°)12.7 mph
Hourly data recorded from CWDJ, located miles away from Regina Airport, Saskatchewan







STORIES FROM OUR PARTNERS